GW3497 Weather Reports


time (UTC)temp
C
wind
direction
speed
KPH
gust
KPH
rain 1hr
cm
rain 24hr
cm
rain mn
cm
humidity
%
barometer
mb
20260508050054 3 114 0.0 0.0 0.00 0.00 0.00 88 1016.4
20260508045816 3 114 0.0 0.0 0.00 0.00 0.00 87 1016.3
20260508045034 3 114 0.0 0.0 0.00 0.00 0.00 87 1016.2
20260508044807 3 114 0.0 0.0 0.00 0.00 0.00 87 1016.2
20260508044038 4 114 0.0 0.0 0.00 0.00 0.00 87 1016.3
20260508043526 4 114 0.0 0.0 0.00 0.00 0.00 87 1016.2
20260508043045 4 114 0.0 0.0 0.00 0.00 0.00 87 1016.2
20260508042524 4 114 0.0 0.0 0.00 0.00 0.00 87 1016.3
20260508042031 4 114 0.0 0.0 0.00 0.00 0.00 86 1016.3
20260508041524 4 114 0.0 0.0 0.00 0.00 0.00 87 1016.3
20260508041031 4 114 0.0 0.0 0.00 0.00 0.00 86 1016.3
20260508040524 4 114 0.0 0.0 0.00 0.00 0.00 86 1016.2
20260508040346 4 114 0.0 0.0 0.00 0.00 0.00 86 1016.3
20260508035524 4 114 0.0 0.0 0.00 0.00 0.00 86 1016.3
20260508035030 5 114 0.0 0.0 0.00 0.00 0.00 86 1016.3
20260508034809 5 114 0.0 0.0 0.00 0.00 0.00 86 1016.3
20260508034325 5 114 0.0 0.0 0.00 0.00 0.00 86 1016.2
20260508033809 5 114 0.0 0.0 0.00 0.00 0.00 86 1016.2
20260508033329 5 114 0.0 0.0 0.00 0.00 0.00 86 1016.1
20260508032524 5 114 0.0 0.0 0.00 0.00 0.00 86 1016.2
20260508032031 5 114 0.0 0.0 0.00 0.00 0.00 86 1016.3
20260508031522 5 114 0.0 0.0 0.00 0.00 0.00 86 1016.3
20260508031028 5 114 0.0 0.0 0.00 0.00 0.00 85 1016.3
20260508030521 5 114 0.0 0.0 0.00 0.00 0.00 86 1016.3
20260508030046 5 114 0.0 0.0 0.00 0.00 0.00 85 1016.3
20260508025521 5 114 0.0 0.0 0.00 0.00 0.00 85 1016.2
20260508025031 6 114 0.0 0.0 0.00 0.00 0.00 85 1016.2
20260508024521 6 114 0.0 0.0 0.00 0.00 0.00 85 1016.3
20260508024029 6 114 0.0 0.0 0.00 0.00 0.00 85 1016.2
20260508023519 6 114 0.0 0.0 0.00 0.00 0.00 85 1016.3
20260508023041 6 114 0.0 0.0 0.00 0.00 0.00 85 1016.3
20260508022519 6 114 0.0 0.0 0.00 0.00 0.00 85 1016.3
20260508022319 6 114 0.0 0.0 0.00 0.00 0.00 85 1016.3
20260508021806 6 114 0.0 0.0 0.00 0.00 0.00 85 1016.3
20260508021028 7 114 0.0 0.0 0.00 0.00 0.00 85 1016.2
20260508020519 7 114 0.0 0.0 0.00 0.00 0.00 85 1016.2
20260508020044 7 114 0.0 0.0 0.00 0.00 0.00 85 1016.2
20260508015518 7 114 0.0 0.0 0.00 0.00 0.00 85 1016.2
20260508015025 7 114 0.0 0.0 0.00 0.00 0.00 85 1016.2
20260508014519 7 114 0.0 0.0 0.00 0.00 0.00 85 1016.2
20260508014024 7 114 0.0 0.0 0.00 0.00 0.00 84 1016.2
20260508013517 7 114 0.0 0.0 0.00 0.00 0.00 84 1016.1
20260508013037 7 114 0.0 0.0 0.00 0.00 0.00 84 1016.1
20260508012517 8 114 0.0 1.6 0.00 0.00 0.00 84 1016.3
20260508012028 8 114 0.0 1.6 0.00 0.00 0.00 84 1016.2
20260508011518 8 114 0.0 0.0 0.00 0.00 0.00 84 1016.3
20260508011028 8 114 0.0 0.0 0.00 0.00 0.00 84 1016.3
20260508010515 8 114 0.0 0.0 0.00 0.00 0.00 84 1016.2
20260508010046 8 114 0.0 0.0 0.00 0.00 0.00 84 1016.3
20260508005514 8 114 0.0 0.0 0.00 0.00 0.00 84 1016.3
20260508005024 8 114 0.0 0.0 0.00 0.00 0.00 85 1016.3
20260508004513 9 114 0.0 0.0 0.00 0.00 0.00 85 1016.4
20260508004024 9 114 0.0 0.0 0.00 0.00 0.00 86 1016.3
20260508003510 9 114 0.0 0.0 0.00 0.00 0.00 86 1016.3
20260508003332 9 114 0.0 3.2 0.00 0.00 0.00 86 1016.3
20260508002512 9 114 0.0 4.8 0.00 0.00 0.00 86 1016.2
20260508002029 9 114 0.0 6.4 0.00 0.00 0.00 86 1016.3
20260508001517 9 114 3.2 6.4 0.00 0.00 0.00 87 1016.3
20260508001001 10 114 3.2 9.7 0.00 0.00 0.00 87 1016.3
20260508000503 10 111 3.2 9.7 0.00 0.00 0.00 86 1016.1
20260508000000 10 117 3.2 8.0 0.00 0.00 0.00 86 1016.2
20260507235459 10 79 3.2 6.4 0.00 0.00 0.00 86 1016.2
20260507234959 10 124 3.2 6.4 0.00 0.00 0.00 86 1016.2
20260507234457 10 127 3.2 6.4 0.00 0.00 0.00 86 1016.3
20260507234314 10 159 3.2 4.8 0.00 0.00 0.00 86 1016.3
20260507233456 10 159 1.6 4.8 0.00 0.00 0.00 85 1016.5
20260507232954 10 159 0.0 4.8 0.00 0.00 0.00 85 1016.4
20260507232454 10 159 1.6 4.8 0.00 0.00 0.00 85 1016.4
20260507231953 10 159 0.0 6.4 0.00 0.00 0.00 85 1016.5
20260507231453 10 159 1.6 6.4 0.00 0.00 0.00 85 1016.5
20260507230953 10 165 0.0 6.4 0.00 0.00 0.00 85 1016.6
20260507230503 10 117 3.2 6.4 0.00 0.00 0.00 85 1016.6
20260507225954 10 110 3.2 6.4 0.00 0.00 0.00 85 1016.7
20260507225453 10 162 1.6 6.4 0.00 0.00 0.00 84 1016.5
20260507224951 10 135 1.6 6.4 0.00 0.00 0.00 84 1016.6
20260507224451 10 125 3.2 6.4 0.00 0.00 0.00 84 1016.6
20260507224319 10 128 1.6 6.4 0.00 0.00 0.00 84 1016.7
20260507223449 10 128 1.6 4.8 0.00 0.00 0.00 84 1016.6
20260507222949 10 121 3.2 6.4 0.00 0.00 0.00 84 1016.6
20260507222446 10 159 3.2 6.4 0.00 0.00 0.00 84 1016.7
20260507221946 10 134 1.6 8.0 0.00 0.00 0.00 84 1016.7
20260507221447 10 117 1.6 8.0 0.00 0.00 0.00 84 1016.7
20260507221320 10 137 3.2 8.0 0.00 0.00 0.00 83 1016.7
20260507220447 10 135 1.6 6.4 0.00 0.00 0.00 83 1016.7
20260507215943 10 135 3.2 6.4 0.00 0.00 0.00 83 1016.7
20260507215445 10 135 3.2 8.0 0.00 0.00 0.00 83 1016.8
20260507215130 10 125 1.6 8.0 0.00 0.00 0.00 83 1016.8
20260507215033 10 130 4.8 8.0 0.00 0.00 0.00 83 1016.8
20260507213944 10 127 1.6 8.0 0.00 0.00 0.00 82 1016.8
20260507213443 10 124 3.2 8.0 0.00 0.00 0.00 82 1016.8
20260507212943 11 124 1.6 8.0 0.00 0.00 0.00 82 1016.8
20260507212442 11 138 1.6 6.4 0.00 0.00 0.00 82 1016.8
20260507211943 11 130 1.6 6.4 0.00 0.00 0.00 82 1016.7
20260507211443 11 130 3.2 6.4 0.00 0.00 0.00 82 1016.7
20260507210942 11 131 3.2 6.4 0.00 0.00 0.00 81 1016.6
20260507210443 11 133 1.6 8.0 0.00 0.00 0.00 81 1016.6
20260507205943 11 131 1.6 8.0 0.00 0.00 0.00 80 1016.5
20260507205446 11 135 1.6 4.8 0.00 0.00 0.00 80 1016.5
20260507204943 11 135 1.6 6.4 0.00 0.00 0.00 80 1016.5
20260507204442 11 135 1.6 8.0 0.00 0.00 0.00 80 1016.4
20260507203944 11 140 3.2 9.7 0.00 0.00 0.00 80 1016.3
20260507203442 11 124 4.8 9.7 0.00 0.00 0.00 79 1016.3
20260507202942 11 120 6.4 11.3 0.00 0.00 0.00 79 1016.3
20260507202442 11 157 4.8 11.3 0.00 0.00 0.00 79 1016.4
20260507201944 11 186 3.2 11.3 0.00 0.00 0.00 79 1016.3
20260507201802 11 121 4.8 11.3 0.00 0.00 0.00 78 1016.2
20260507200942 11 117 4.8 11.3 0.00 0.00 0.00 78 1016.1
20260507200442 11 114 3.2 11.3 0.00 0.00 0.00 78 1016.1
20260507195944 11 137 4.8 14.5 0.00 0.00 0.00 78 1016.0
20260507195444 11 134 6.4 14.5 0.00 0.00 0.00 77 1015.9
20260507195311 11 120 6.4 11.3 0.00 0.00 0.00 77 1015.8
20260507194439 11 165 4.8 11.3 0.00 0.00 0.00 77 1015.7
20260507194313 11 142 1.6 9.7 0.00 0.00 0.00 76 1015.7
20260507193439 11 116 4.8 14.5 0.00 0.00 0.00 76 1015.7
20260507192938 11 168 4.8 14.5 0.00 0.00 0.00 75 1015.6
20260507192440 11 185 3.2 14.5 0.00 0.00 0.00 75 1015.7
20260507191938 12 141 6.4 11.3 0.00 0.00 0.00 74 1015.7
20260507191637 12 131 6.4 11.3 0.00 0.00 0.00 73 1015.5
20260507191548 12 116 3.2 11.3 0.00 0.00 0.00 73 1015.6
20260507190436 12 149 4.8 9.7 0.00 0.00 0.00 72 1015.6
20260507185938 12 120 6.4 17.7 0.00 0.00 0.00 72 1015.6
20260507185435 12 145 6.4 17.7 0.00 0.00 0.00 72 1015.6
20260507185333 12 142 8.0 11.3 0.00 0.00 0.00 71 1015.6
20260507184557 12 128 6.4 11.3 0.00 0.00 0.00 70 1015.7
20260507183432 12 199 3.2 14.5 0.00 0.00 0.00 70 1015.6
20260507182934 12 151 6.4 14.5 0.00 0.00 0.00 68 1015.5
20260507182435 12 152 1.6 8.0 0.00 0.00 0.00 68 1015.5
20260507181932 -17 168 8.0 8.0 0.00 0.00 0.00 1015.5
20260507181433 13 179 6.4 6.4 0.00 0.00 0.00 67 1015.3
20260507181302 13 155 6.4 6.4 0.00 0.00 0.00 67 1015.3
20260507180432 13 144 6.4 6.4 0.00 0.00 0.00 67 1015.2
20260507175933 13 149 3.2 8.0 0.00 0.00 0.00 67 1015.2
20260507175433 13 135 8.0 9.7 0.00 0.00 0.00 67 1015.2
20260507174934 -17 166 9.7 16.1 0.00 0.00 0.00 1015.2
20260507174433 -17 155 9.7 16.1 0.00 0.00 0.00 1015.1
20260507174307 13 137 8.0 8.0 0.00 0.00 0.00 68 1015.2
20260507173741 13 154 6.4 8.0 0.00 0.00 0.00 68 1015.1
20260507172935 13 104 8.0 8.0 0.00 0.00 0.00 68 1015.1
20260507172433 13 104 8.0 8.0 0.00 0.00 0.00 68 1015.1
20260507171932 -17 190 6.4 6.4 0.00 0.00 0.00 1015.1
20260507171431 13 147 4.8 9.7 0.00 0.00 0.00 68 1015.1
20260507170920 13 86 4.8 9.7 0.00 0.00 0.00 68 1015.1
20260507170420 13 100 8.0 8.0 0.00 0.00 0.00 69 1015.1
20260507170250 13 109 0.0 3.2 0.00 0.00 0.00 69 1015.1
20260507165406 13 109 0.0 9.7 0.00 0.00 0.00 69 1015.2
20260507164906 13 109 4.8 9.7 0.00 0.00 0.00 69 1015.2
20260507164403 13 94 3.2 11.3 0.00 0.00 0.00 69 1015.2
20260507163904 13 87 6.4 11.3 0.00 0.00 0.00 69 1015.2
20260507163710 13 92 6.4 11.3 0.00 0.00 0.00 69 1015.2
20260507162905 13 89 3.2 11.3 0.00 0.00 0.00 69 1015.3
20260507162403 13 120 4.8 11.3 0.00 0.00 0.00 68 1015.3
20260507161900 13 104 3.2 9.7 0.00 0.00 0.00 69 1015.2
20260507161358 13 107 3.2 9.7 0.00 0.00 0.00 69 1015.3
20260507160854 13 79 3.2 9.7 0.00 0.00 0.00 68 1015.2
20260507160355 13 110 4.8 16.1 0.00 0.00 0.00 68 1015.2
20260507155852 13 85 6.4 16.1 0.00 0.00 0.00 68 1015.2
20260507155354 13 85 9.7 14.5 0.00 0.00 0.00 67 1015.2
20260507154852 13 125 8.0 14.5 0.00 0.00 0.00 67 1015.3
20260507154352 13 47 4.8 9.7 0.00 0.00 0.00 67 1015.3
20260507154217 13 111 6.4 11.3 0.00 0.00 0.00 64 1015.2
20260507153348 13 97 4.8 11.3 0.00 0.00 0.00 63 1015.2
20260507153224 13 85 3.2 8.0 0.00 0.00 0.00 63 1015.3
20260507152348 13 37 4.8 11.3 0.00 0.00 0.00 64 1015.3
20260507151848 13 102 3.2 11.3 0.00 0.00 0.00 63 1015.3
20260507151346 13 92 6.4 19.3 0.00 0.00 0.00 64 1015.3
20260507150845 13 114 4.8 19.3 0.00 0.00 0.00 62 1015.3
20260507150347 14 49 6.4 11.3 0.00 0.00 0.00 62 1015.2
20260507145845 14 97 3.2 9.7 0.00 0.00 0.00 62 1015.3
20260507145343 14 86 4.8 9.7 0.00 0.00 0.00 62 1015.3
20260507144846 14 179 4.8 6.4 0.00 0.00 0.00 61 1015.3
20260507144653 14 179 4.8 6.4 0.00 0.00 0.00 62 1015.4
20260507143841 14 100 6.4 9.7 0.00 0.00 0.00 60 1015.4
20260507143334 14 94 6.4 8.0 0.00 0.00 0.00 61 1015.4
20260507142835 14 117 3.2 6.4 0.00 0.00 0.00 63 1015.4
20260507142334 14 120 1.6 16.1 0.00 0.00 0.00 64 1015.5
20260507141833 14 120 3.2 16.1 0.00 0.00 0.00 62 1015.5
20260507141333 14 128 3.2 14.5 0.00 0.00 0.00 61 1015.5
20260507141209 14 106 6.4 14.5 0.00 0.00 0.00 61 1015.6
20260507140333 14 134 3.2 11.3 0.00 0.00 0.00 61 1015.6
20260507140215 15 109 4.8 11.3 0.00 0.00 0.00 59 1015.6
20260507135333 15 203 4.8 8.0 0.00 0.00 0.00 59 1015.6
20260507134834 15 121 4.8 8.0 0.00 0.00 0.00 58 1015.6
20260507134329 15 203 3.2 6.4 0.00 0.00 0.00 58 1015.7
20260507133829 15 178 0.0 6.4 0.00 0.00 0.00 58 1015.6
20260507133328 16 207 6.4 11.3 0.00 0.00 0.00 54 1015.6
20260507133159 16 179 8.0 11.3 0.00 0.00 0.00 54 1015.7
20260507132326 16 188 6.4 6.4 0.00 0.00 0.00 59 1015.7
20260507131825 16 202 4.8 6.4 0.00 0.00 0.00 54 1015.7
20260507131637 16 202 4.8 9.7 0.00 0.00 0.00 54 1015.8
20260507130831 17 114 6.4 9.7 0.00 0.00 0.00 54 1015.7
20260507130326 17 172 4.8 6.4 0.00 0.00 0.00 62 1015.7
20260507125821 17 68 6.4 8.0 0.00 0.00 0.00 62 1015.7
20260507125321 16 158 3.2 11.3 0.00 0.00 0.00 65 1015.8
20260507124812 16 118 8.0 14.5 0.00 0.00 0.00 65 1015.9
20260507124311 16 79 12.9 14.5 0.00 0.00 0.00 65 1015.9
20260507123810 16 80 9.7 14.5 0.00 0.00 0.00 65 1015.9
20260507123308 16 92 6.4 16.1 0.00 0.00 0.00 65 1015.9
20260507122804 16 96 9.7 16.1 0.00 0.00 0.00 65 1015.9
20260507122413 16 169 3.2 9.7 0.00 0.00 0.00 65 1015.9
20260507122352 16 61 6.4 9.7 0.00 0.00 0.00 65 1015.8
20260507121302 15 117 9.7 9.7 0.00 0.00 0.00 68 1016.1
20260507120802 15 130 8.0 8.0 0.00 0.00 0.00 68 1016.0
20260507120259 -17 97 4.8 4.8 0.00 0.00 0.00 1016.1
20260507115759 13 109 3.2 6.4 0.00 0.00 0.00 68 1016.1
20260507115248 13 120 6.4 8.0 0.00 0.00 0.00 68 1016.0
20260507115106 -17 120 8.0 8.0 0.00 0.00 0.00 1016.1
20260507114247 -17 176 3.2 6.4 0.00 0.00 0.00 1016.2
20260507114101 13 131 6.4 6.4 0.00 0.00 0.00 69 1016.3
20260507113244 13 147 3.2 3.2 0.00 0.00 0.00 69 1016.1
20260507112745 12 145 8.0 8.0 0.00 0.00 0.00 70 1016.2
20260507112244 12 145 8.0 8.0 0.00 0.00 0.00 74 1016.2
20260507111744 12 144 0.0 4.8 0.00 0.00 0.00 74 1016.3
20260507111246 12 142 4.8 4.8 0.00 0.00 0.00 74 1016.3
20260507110748 -17 145 1.6 3.2 0.00 0.00 0.00 1016.3
20260507110257 -17 141 3.2 4.8 0.00 0.00 0.00 1016.4
20260507105746 -17 137 4.8 4.8 0.00 0.00 0.00 1016.4
20260507105234 -17 127 3.2 4.8 0.00 0.00 0.00 1016.3
20260507105046 11 142 3.2 3.2 0.00 0.00 0.00 75 1016.4
20260507104232 11 142 1.6 4.8 0.00 0.00 0.00 75 1016.4
20260507103731 11 135 1.6 4.8 0.00 0.00 0.00 75 1016.4
20260507103233 11 135 1.6 4.8 0.00 0.00 0.00 77 1016.4
20260507102730 11 127 0.0 6.4 0.00 0.00 0.00 77 1016.4
20260507102229 11 127 3.2 6.4 0.00 0.00 0.00 77 1016.4
20260507101729 11 125 3.2 6.4 0.00 0.00 0.00 76 1016.5
20260507101229 11 125 0.0 6.4 0.00 0.00 0.00 76 1016.5
20260507100727 11 123 1.6 4.8 0.00 0.00 0.00 77 1016.5
20260507100225 11 123 1.6 3.2 0.00 0.00 0.00 78 1016.4
20260507095727 11 123 0.0 1.6 0.00 0.00 0.00 78 1016.4
20260507095226 11 123 0.0 3.2 0.00 0.00 0.00 78 1016.5
20260507094723 10 123 0.0 4.8 0.00 0.00 0.00 77 1016.5
20260507094225 10 120 1.6 4.8 0.00 0.00 0.00 78 1016.5
20260507093724 10 118 1.6 4.8 0.00 0.00 0.00 78 1016.5
20260507093226 10 113 0.0 0.0 0.00 0.00 0.00 79 1016.5
20260507092724 10 113 0.0 0.0 0.00 0.00 0.00 79 1016.3
20260507092225 10 113 0.0 3.2 0.00 0.00 0.00 79 1016.3
20260507091725 10 113 0.0 3.2 0.00 0.00 0.00 79 1016.3
20260507091225 10 113 0.0 3.2 0.00 0.00 0.00 79 1016.4
20260507090726 10 113 0.0 3.2 0.00 0.00 0.00 79 1016.4
20260507090225 10 113 1.6 3.2 0.00 0.00 0.00 79 1016.3
20260507085723 10 113 0.0 1.6 0.00 0.00 0.00 81 1016.3
20260507085221 10 113 0.0 3.2 0.00 0.00 0.00 81 1016.4
20260507084720 10 113 0.0 4.8 0.00 0.00 0.00 81 1016.4
20260507084221 10 113 1.6 9.7 0.00 0.00 0.00 81 1016.3
20260507084037 10 111 3.2 9.7 0.00 0.00 0.00 82 1016.3
20260507083211 10 111 4.8 8.0 0.00 0.00 0.00 84 1016.4
20260507082710 10 111 3.2 8.0 0.00 0.00 0.00 84 1016.3
20260507082204 10 111 0.0 6.4 0.00 0.00 0.00 84 1016.3
20260507081704 10 111 3.2 8.0 0.00 0.00 0.00 84 1016.4
20260507081204 10 110 6.4 8.0 0.00 0.00 0.00 85 1016.4
20260507080948 9 113 3.2 6.4 0.00 0.00 0.00 88 1016.3
20260507080206 9 158 6.4 6.4 0.00 0.00 0.00 88 1016.3
20260507075705 9 93 3.2 6.4 0.00 0.00 0.00 89 1016.3
20260507075204 9 66 6.4 6.4 0.00 0.00 0.00 89 1016.3
20260507074704 8 104 3.2 6.4 0.00 0.00 0.00 89 1016.2
20260507074206 8 104 1.6 6.4 0.00 0.00 0.00 89 1016.3
20260507073702 8 114 0.0 4.8 0.00 0.00 0.00 88 1016.2
20260507073201 8 158 1.6 4.8 0.00 0.00 0.00 88 1016.3
20260507072702 8 159 1.6 4.8 0.00 0.00 0.00 89 1016.3
20260507072200 8 152 1.6 3.2 0.00 0.00 0.00 89 1016.3
20260507071946 8 152 0.0 4.8 0.00 0.00 0.00 89 1016.3
20260507071325 8 110 1.6 4.8 0.00 0.00 0.00 90 1016.2
20260507071259 8 151 1.6 4.8 0.00 0.00 0.00 89 1016.2
20260507070200 8 110 0.0 4.8 0.00 0.00 0.00 90 1016.2
20260507065655 8 110 3.2 6.4 0.00 0.00 0.00 90 1016.1
20260507065443 8 110 1.6 6.4 0.00 0.00 0.00 90 1016.1
20260507064658 7 110 1.6 6.4 0.00 0.00 0.00 90 1016.1
20260507064155 7 75 3.2 6.4 0.00 0.00 0.00 90 1016.1
20260507063652 7 68 1.6 4.8 0.00 0.00 0.00 90 1016.1
20260507063151 7 68 0.0 6.4 0.00 0.00 0.00 90 1016.0
20260507062650 7 68 3.2 6.4 0.00 0.00 0.00 91 1016.0
20260507062151 7 66 0.0 3.2 0.00 0.00 0.00 91 1016.0
20260507061651 7 66 0.0 0.0 0.00 0.00 0.00 91 1016.0
20260507061437 7 66 0.0 0.0 0.00 0.00 0.00 91 1016.0
20260507060654 7 66 0.0 3.2 0.00 0.00 0.00 91 1015.9
20260507060434 7 42 0.0 3.2 0.00 0.00 0.00 91 1015.9
20260507055652 7 42 0.0 3.2 0.00 0.00 0.00 90 1015.9
20260507055156 7 42 0.0 3.2 0.00 0.00 0.00 91 1015.8
20260507054652 7 42 0.0 0.0 0.00 0.00 0.00 90 1015.9
20260507054154 7 42 0.0 0.0 0.00 0.00 0.00 90 1015.8
20260507053651 7 42 0.0 0.0 0.00 0.00 0.00 90 1015.8
20260507053148 7 42 0.0 0.0 0.00 0.00 0.00 90 1015.7
20260507052646 6 42 0.0 0.0 0.00 0.00 0.00 89 1015.8
20260507052146 6 42 0.0 0.0 0.00 0.00 0.00 89 1015.7
20260507051646 6 42 0.0 0.0 0.00 0.00 0.00 89 1015.7
20260507051146 6 42 0.0 0.0 0.00 0.00 0.00 89 1015.6
20260507050651 6 42 0.0 0.0 0.00 0.00 0.00 89 1015.6